La Grange, TX

7:33 AM CST on December 08, 2019 (GMT -0600)
La Grange

Weather History for K3T5 - November, 2019

Change the Weather History Date:

Thursday, November 14, 2019

  Actual Average (WUND) Record (WUND)
Temperature  
Mean Temperature 42 °F -  
Max Temperature 45 °F - - (-1)
Min Temperature 39 °F - - (-1)
Degree Days  
Heating Degree Days 23    
Moisture  
Dew Point 43 °F    
Average Humidity 98    
Maximum Humidity 100    
Minimum Humidity 72    
Precipitation  
Precipitation 0.35 in - - ()
Sea Level Pressure  
Sea Level Pressure 30.25 in    
Wind  
Wind Speed 3 mph (North)    
Max Wind Speed 9 mph    
Max Gust Speed -    
Visibility 7 miles    
Events Rain    
Averages and records for this station are not official NWS values.
T = Trace of Precipitation, MM = Missing Value Source: NWS Daily Summary

Daily Weather History Graph

Daily Weather History Graph

Search for Another Location

Airport or City:

Astronomy

Nov. 14, 2019 Rise Set
Actual Time 6:51 AM CST 5:32 PM CST
Civil Twilight 6:26 AM CST 5:57 PM CST
Nautical Twilight 5:57 AM CST 6:26 PM CST
Astronomical Twilight 5:29 AM CST 6:54 PM CST
Moon 7:24 PM CST (11/14) 8:43 AM CST (11/14)
Length of Visible Light 11h 31m
Length of Day
10h 40m
Waning Gibbous, 95% of the Moon is Illuminated
Nov 14
Waning Gibbous
Nov 19
Last Quarter
Nov 26
New
Dec 4
First Quarter
Dec 11
Full

Hourly Weather History & Observations

Time (CST) Temp. Windchill Dew Point Humidity Pressure Visibility Wind Dir Wind Speed Gust Speed Precip Events Conditions
12:15 AM 42.3 °F - 34.0 °F 72% 30.16 in 10.0 mi Calm Calm - N/A   Overcast
12:35 AM 42.8 °F - 34.7 °F 73% 30.16 in 10.0 mi Calm Calm - N/A   Overcast
12:55 AM 42.8 °F - 34.9 °F 74% 30.16 in 10.0 mi Calm Calm - N/A   Overcast
1:15 AM 42.3 °F 40.5 °F 35.6 °F 77% 30.16 in 10.0 mi NW 3.5 mph - N/A   Overcast
1:55 AM 41.7 °F - 37.4 °F 85% 30.15 in 10.0 mi Calm Calm - N/A   Overcast
2:15 AM 41.9 °F - 37.9 °F 86% 30.16 in 10.0 mi Calm Calm - N/A   Drizzle
2:55 AM 41.0 °F 38.0 °F 40.3 °F 97% 30.16 in 10.0 mi North 4.6 mph - N/A   Drizzle
3:15 AM 41.2 °F 38.2 °F 41.2 °F 100% 30.15 in 7.0 mi NNW 4.6 mph - N/A Rain Rain
3:35 AM 40.8 °F - 40.8 °F 100% 30.14 in 2.5 mi Calm Calm - 0.03 in Rain Rain
3:55 AM 40.8 °F - 40.8 °F 100% 30.14 in 3.0 mi Calm Calm - 0.07 in   Overcast
4:15 AM 41.0 °F - 41.0 °F 100% 30.14 in 5.0 mi Calm Calm - 0.01 in Rain Light Rain
4:35 AM 41.4 °F - 41.4 °F 100% 30.15 in 5.0 mi Calm Calm - 0.03 in Rain Light Rain
4:55 AM 41.7 °F 39.8 °F 41.7 °F 100% 30.16 in 4.0 mi North 3.5 mph - 0.05 in   Overcast
5:15 AM 41.9 °F 40.0 °F 41.9 °F 100% 30.16 in 4.0 mi North 3.5 mph - 0.02 in Rain Light Rain
5:35 AM 41.7 °F 38.8 °F 41.7 °F 100% 30.18 in 5.0 mi North 4.6 mph - 0.04 in Rain Light Rain
5:55 AM 41.9 °F - 41.9 °F 100% 30.18 in 5.0 mi Calm Calm - 0.04 in   Drizzle
6:15 AM 42.3 °F 40.5 °F 42.3 °F 100% 30.18 in 5.0 mi NNE 3.5 mph - 0.01 in Rain Light Rain
6:35 AM 42.4 °F 38.8 °F 42.4 °F 100% 30.18 in 7.0 mi NNE 5.8 mph - 0.02 in   Overcast
6:55 AM 42.4 °F 38.1 °F 42.4 °F 100% 30.19 in 7.0 mi NNE 6.9 mph - 0.02 in   Overcast
7:15 AM 42.8 °F 39.3 °F 42.8 °F 100% 30.20 in 5.0 mi NNE 5.8 mph - N/A Rain Light Rain
7:35 AM 42.8 °F 39.3 °F 42.8 °F 100% 30.21 in 5.0 mi NNE 5.8 mph - 0.02 in Rain Light Rain
7:55 AM 43.0 °F 38.8 °F 43.0 °F 100% 30.22 in 3.0 mi NNE 6.9 mph - 0.02 in Rain Light Rain
8:15 AM 42.8 °F 39.3 °F 42.8 °F 100% 30.23 in 3.0 mi NNE 5.8 mph - 0.01 in Rain Rain
8:35 AM 42.6 °F 39.0 °F 42.6 °F 100% 30.24 in 4.0 mi NE 5.8 mph - 0.01 in Rain Rain
8:55 AM 42.6 °F 38.4 °F 42.6 °F 100% 30.24 in 3.0 mi NNE 6.9 mph - 0.02 in   Drizzle
9:15 AM 42.8 °F 40.1 °F 42.8 °F 100% 30.25 in 3.0 mi NNE 4.6 mph - N/A   Drizzle
9:35 AM 42.8 °F 41.1 °F 42.8 °F 100% 30.26 in 3.0 mi NNE 3.5 mph - 0.01 in   Drizzle
9:55 AM 43.3 °F 40.7 °F 43.3 °F 100% 30.26 in 3.0 mi NNE 4.6 mph - 0.01 in   Drizzle
10:15 AM 44.1 °F 41.5 °F 44.1 °F 100% 30.26 in 4.0 mi NNE 4.6 mph - N/A   Overcast
10:55 AM 45.0 °F 41.8 °F 45.0 °F 100% 30.27 in 3.0 mi NE 5.8 mph - N/A   Drizzle
11:35 AM 45.5 °F 43.2 °F 45.5 °F 100% 30.26 in 2.0 mi NNE 4.6 mph - 0.01 in   Drizzle
11:55 AM 45.5 °F 41.8 °F 45.5 °F 100% 30.26 in 1.8 mi NNE 6.9 mph - 0.01 in   Drizzle
12:15 PM 45.7 °F 42.7 °F 45.7 °F 100% 30.25 in 1.8 mi NNE 5.8 mph - 0.01 in Rain Light Rain
12:35 PM 45.3 °F 41.1 °F 45.3 °F 100% 30.25 in 3.0 mi North 8.1 mph - 0.02 in Rain Rain
12:55 PM 45.5 °F 41.8 °F 45.5 °F 100% 30.24 in 4.0 mi North 6.9 mph - 0.03 in Rain Light Rain
1:15 PM 45.5 °F 43.2 °F 45.5 °F 100% 30.24 in 5.0 mi North 4.6 mph - 0.01 in Rain Light Rain
1:35 PM 45.5 °F 41.8 °F 45.5 °F 100% 30.25 in 7.0 mi North 6.9 mph - 0.03 in Rain Light Rain
1:55 PM 45.5 °F 41.8 °F 45.5 °F 100% 30.25 in 10.0 mi North 6.9 mph - 0.05 in Rain Light Rain
2:15 PM 45.3 °F 41.6 °F 45.3 °F 100% 30.26 in 10.0 mi North 6.9 mph - 0.01 in Rain Light Rain
2:35 PM 45.5 °F 42.5 °F 45.5 °F 100% 30.26 in 10.0 mi North 5.8 mph - 0.01 in   Drizzle
2:55 PM 45.5 °F 42.5 °F 45.5 °F 100% 30.27 in 10.0 mi North 5.8 mph - 0.02 in Rain Rain
3:15 PM 45.1 °F 40.3 °F 45.1 °F 100% 30.27 in 10.0 mi North 9.2 mph - N/A   Drizzle
3:35 PM 44.8 °F 40.4 °F 44.6 °F 99% 30.27 in 10.0 mi North 8.1 mph - N/A Rain Rain
3:55 PM 44.8 °F 41.6 °F 44.2 °F 98% 30.27 in 10.0 mi North 5.8 mph - 0.01 in Rain Light Rain
4:15 PM 45.1 °F 42.0 °F 45.1 °F 100% 30.27 in 10.0 mi North 5.8 mph - N/A   Light Drizzle
4:55 PM 44.8 °F 41.0 °F 44.6 °F 99% 30.28 in 10.0 mi North 6.9 mph - N/A Rain Rain
5:15 PM 44.6 °F 40.7 °F 44.6 °F 100% 30.29 in 10.0 mi North 6.9 mph - N/A Rain Rain
5:35 PM 44.6 °F 42.2 °F 44.6 °F 100% 30.29 in 10.0 mi North 4.6 mph - N/A   Light Drizzle
5:55 PM 44.6 °F 41.4 °F 44.6 °F 100% 30.30 in 10.0 mi North 5.8 mph - N/A   Overcast
6:15 PM 44.6 °F 41.4 °F 44.6 °F 100% 30.30 in 10.0 mi North 5.8 mph - N/A   Overcast
6:35 PM 44.6 °F 40.7 °F 44.6 °F 100% 30.31 in 10.0 mi North 6.9 mph - N/A   Overcast
6:55 PM 44.8 °F 43.3 °F 44.8 °F 100% 30.32 in 10.0 mi North 3.5 mph - N/A   Overcast
7:15 PM 44.8 °F 42.4 °F 44.8 °F 100% 30.33 in 10.0 mi North 4.6 mph - N/A   Overcast
7:35 PM 44.8 °F 42.4 °F 44.8 °F 100% 30.33 in 10.0 mi North 4.6 mph - N/A   Overcast
7:55 PM 44.8 °F 43.3 °F 44.8 °F 100% 30.34 in 10.0 mi North 3.5 mph - N/A   Overcast
8:15 PM 44.6 °F 43.1 °F 44.6 °F 100% 30.34 in 10.0 mi North 3.5 mph - N/A   Overcast
8:35 PM 44.8 °F 42.4 °F 44.8 °F 100% 30.35 in 10.0 mi North 4.6 mph - N/A   Overcast
8:55 PM 44.2 °F 41.8 °F 44.2 °F 100% 30.36 in 10.0 mi North 4.6 mph - N/A   Mostly Cloudy
9:15 PM 43.7 °F 42.1 °F 43.7 °F 100% 30.36 in 7.0 mi North 3.5 mph - N/A   Scattered Clouds
9:35 PM 43.2 °F 41.5 °F 43.2 °F 100% 30.37 in 7.0 mi North 3.5 mph - N/A   Scattered Clouds
9:55 PM 42.4 °F - 42.4 °F 100% 30.37 in 5.0 mi Calm Calm - N/A   Scattered Clouds
10:15 PM 42.1 °F - 42.1 °F 100% 30.37 in 5.0 mi Calm Calm - N/A   Clear
10:35 PM 41.4 °F - 41.4 °F 100% 30.37 in 5.0 mi Calm Calm - N/A   Clear
10:55 PM 40.5 °F - 40.5 °F 100% 30.37 in 3.0 mi Calm Calm - N/A   Clear
11:15 PM 39.7 °F 37.6 °F 39.7 °F 100% 30.37 in 3.0 mi NNW 3.5 mph - N/A   Clear
11:35 PM 39.6 °F 36.3 °F 39.6 °F 100% 30.37 in 3.0 mi NNW 4.6 mph - N/A   Clear
11:55 PM 39.9 °F 35.8 °F 39.9 °F 100% 30.37 in 3.0 mi NNW 5.8 mph - N/A   Clear